Wind_Speed
17 17 17 17 17 17 16 17 16 14 13 12 11 10 8 6 4 3 1 1 2 2 3 3 4 3 3 4 4 4 5 4 4 4 4 4 4 4 4 5 5 6 6
16 16 17 17 17 17 17 16 16 14 13 12 11 10 9 8 5 4 2 2 2 2 3 3 4 4 4 4 4 4 5 6 6 6 5 5 5 5 5 6 6 7 8
16 16 16 16 17 17 17 16 15 15 13 11 11 9 9 8 7 6 4 3 3 3 3 4 4 4 4 5 5 5 5 5 6 7 7 6 7 7 7 7 7 8 8
15 15 15 15 16 16 16 15 14 14 14 12 10 9 8 8 8 8 5 4 3 4 4 4 5 5 5 6 6 6 6 6 6 7 8 8 8 9 9 9 9 10 10
15 15 15 14 15 15 15 15 15 14 13 13 11 9 9 8 8 7 6 4 3 3 3 4 5 6 6 6 7 8 7 8 9 9 9 9 9 9 9 10 11 11 12
14 14 14 14 14 14 14 14 14 14 13 12 11 10 9 9 8 8 7 5 4 3 3 3 5 6 6 6 6 7 8 9 10 10 11 11 11 11 11 12 12 13 13
13 13 14 14 14 14 14 14 14 14 13 12 12 11 10 10 9 8 7 6 4 4 4 4 5 6 6 7 7 8 8 9 10 11 12 13 13 13 14 13 14 14 15
11 11 12 12 13 14 13 14 13 13 13 12 12 11 10 10 9 8 7 7 6 5 4 4 6 7 7 7 8 9 10 11 11 11 12 13 14 15 15 16 16 16 17
12 10 11 12 12 13 13 13 13 12 12 12 12 11 10 10 10 9 8 7 6 5 5 5 6 7 8 8 9 10 10 11 12 13 13 13 14 15 16 17 17 17 17
13 11 11 11 13 13 13 13 13 12 12 12 12 11 11 10 10 10 9 9 8 6 6 6 6 7 8 8 9 10 10 11 12 13 14 15 16 16 17 17 17 18 19
14 13 12 12 13 12 13 13 13 12 12 13 12 12 11 11 11 11 10 9 8 7 7 7 8 8 9 9 10 11 12 13 14 15 16 17 17 17 17 18 19 19 20
13 13 13 14 13 12 12 12 12 12 12 13 13 13 12 11 11 11 11 10 9 9 9 9 9 10 11 11 11 12 12 14 14 15 16 17 17 18 19 19 20 21 22
13 14 14 13 12 12 12 12 12 12 12 13 14 13 13 12 12 12 12 11 11 11 11 11 10 11 12 13 12 13 14 15 15 16 17 18 19 19 20 20 21 23 24
15 15 16 15 13 12 12 12 12 12 12 13 14 15 14 14 13 13 13 12 12 11 12 11 12 12 13 13 14 15 15 15 16 16 17 18 19 21 21 22 23 24 25
17 17 16 15 14 13 13 13 13 13 13 14 14 15 15 15 15 14 13 13 13 13 13 13 13 14 14 15 16 16 16 17 17 17 18 19 20 22 23 24 24 25 25
19 18 18 16 15 15 15 15 13 14 14 15 15 16 16 16 16 15 14 14 14 14 14 14 15 15 15 16 17 18 18 19 18 18 19 20 21 22 23 24 24 25 26
23 20 19 17 16 16 17 16 15 16 16 16 16 17 17 17 17 16 16 15 15 15 16 16 16 17 17 17 18 18 19 19 20 20 21 22 23 24 25 25 25 25 27
24 22 21 19 18 17 17 17 17 17 17 17 18 18 18 18 18 18 17 17 16 16 17 17 17 17 17 17 17 18 18 19 20 21 22 23 24 24 25 25 26 26 27
25 23 22 21 20 19 19 19 18 19 19 19 19 19 19 19 19 19 19 18 18 18 18 18 18 18 18 19 19 20 20 21 22 23 24 24 25 25 25 26 26 26 27
26 25 23 23 22 21 21 21 20 20 20 20 20 20 20 20 21 20 20 20 20 19 19 19 19 19 19 20 21 21 22 23 23 24 25 25 25 25 26 26 26 27 27
27 26 24 24 23 22 22 21 21 21 20 21 21 21 21 23 22 22 22 22 21 21 21 21 21 21 21 21 22 22 23 23 24 25 25 25 26 26 26 27 27 27 28
28 26 25 24 23 23 23 23 23 22 22 23 23 22 23 23 23 23 23 23 22 22 22 22 22 22 22 22 23 24 24 24 24 25 25 26 26 26 27 27 28 29 29
29 27 26 25 25 25 25 25 25 25 25 25 25 24 24 24 24 24 24 24 23 22 23 23 23 23 24 24 24 25 25 25 25 25 26 26 26 27 27 28 29 29 30
29 28 27 27 27 26 26 26 26 26 26 27 27 27 26 26 26 26 25 24 24 23 24 24 24 25 25 26 26 26 26 26 26 26 26 26 27 27 27 28 29 30 31
29 28 28 28 27 27 27 27 28 28 28 28 28 28 28 28 27 26 25 25 24 24 25 25 25 25 26 27 27 26 26 26 27 27 27 27 27 27 28 28 29 30 31
29 29 29 28 28 28 29 29 29 29 29 29 29 29 28 28 27 26 26 25 25 25 25 25 26 26 26 26 26 26 26 26 26 27 27 27 28 28 29 29 30 30 30
Wind_Direction
13 14 13 14 16 15 14 14 13 14 16 17 17 17 17 17 6 360 6 347 297 271 250 239 233 234 234 230 236 235 237 242 252 261 266 273 272 268 261 265 269 270 272
10 10 11 12 13 13 12 10 14 14 13 11 9 10 13 16 16 7 352 314 298 267 243 238 237 236 229 232 241 246 247 247 247 252 258 265 268 266 269 272 274 273 278
5 7 8 9 8 10 10 11 12 13 12 8 6 6 10 12 10 1 343 317 297 279 260 245 241 239 235 235 243 251 255 254 250 247 251 256 260 269 270 272 274 275 276
357 1 3 4 4 5 6 8 11 13 11 10 7 3 1 2 1 0 353 333 307 290 278 249 239 238 241 246 252 257 262 259 256 255 255 261 264 266 268 270 273 275 278
352 356 357 357 359 2 5 8 12 13 12 10 8 5 2 359 357 356 354 340 316 297 278 256 255 251 251 256 258 260 263 263 262 263 264 269 270 272 274 276 279 278 275
346 352 351 353 357 360 3 6 8 9 10 11 9 5 3 1 358 353 347 340 325 297 277 270 261 260 259 264 268 264 266 266 266 267 268 268 271 273 275 276 277 280 278
341 346 348 353 354 356 0 3 3 4 5 5 4 3 1 1 359 358 356 350 336 318 295 276 270 270 268 266 267 271 272 271 270 271 272 273 272 274 275 276 278 278 277
337 341 346 350 351 353 356 359 360 0 1 2 0 359 359 360 358 357 355 353 346 332 312 284 273 271 271 273 272 273 276 274 272 274 276 275 274 274 275 276 279 278 278
332 333 343 347 348 352 353 353 357 358 359 360 360 358 355 354 354 349 343 344 337 333 323 304 283 276 278 276 275 273 276 276 277 278 280 279 279 277 278 281 280 280 280
334 335 337 338 341 341 345 349 352 356 358 359 356 355 355 353 353 352 344 337 334 324 321 317 309 298 288 284 280 281 278 281 285 285 283 282 281 280 281 282 282 282 282
339 336 333 331 335 337 340 343 348 353 358 358 355 352 350 348 349 348 344 337 337 331 322 312 307 301 296 292 287 283 283 283 284 284 284 284 282 283 285 285 285 285 285
332 331 329 326 329 336 343 345 344 346 349 352 352 352 349 347 343 341 337 334 330 325 319 312 305 300 297 293 289 287 288 288 288 288 286 284 284 285 287 288 287 287 288
323 327 326 328 328 332 336 339 341 342 344 347 349 348 348 345 340 336 331 330 324 319 315 312 309 305 302 298 295 293 292 291 290 289 289 287 285 286 288 289 289 288 289
319 320 321 320 323 325 329 332 335 340 342 343 344 344 340 337 335 332 328 324 319 317 315 309 307 303 302 302 299 297 294 294 294 293 293 291 288 288 288 289 290 290 289
312 316 318 318 319 321 324 323 325 330 335 336 337 339 338 335 330 327 323 320 318 316 314 310 306 303 301 300 297 295 296 296 296 294 295 297 294 291 291 290 290 290 290
305 310 311 312 315 317 317 318 317 322 327 328 331 332 335 337 332 326 322 318 318 316 311 310 308 303 301 299 297 295 296 298 298 297 297 297 297 296 295 293 292 291 292
299 302 303 304 307 311 312 316 316 319 321 323 327 329 331 331 330 328 325 322 317 314 314 311 311 309 304 300 299 296 298 299 299 298 300 300 299 299 300 299 298 296 295
294 296 297 298 300 303 307 310 312 314 316 319 320 322 325 326 327 325 323 321 320 318 316 316 315 312 309 308 308 307 307 305 302 301 300 301 301 302 301 300 299 298 297
289 291 291 293 295 297 300 303 306 310 312 313 314 318 320 320 321 319 319 318 317 316 315 314 313 311 309 308 308 307 307 306 304 302 301 301 302 301 301 301 300 300 299
284 285 285 288 291 293 294 296 300 303 306 309 310 312 313 314 316 315 316 316 315 314 313 312 310 309 311 310 307 306 305 305 304 303 303 303 303 303 303 302 302 302 301
281 282 283 285 286 288 290 291 294 298 301 305 308 307 309 311 313 313 313 312 312 311 310 310 310 310 310 309 306 305 305 305 305 304 304 304 303 302 302 302 303 303 303
277 279 281 281 283 286 287 288 290 292 295 300 303 305 307 308 310 310 311 311 311 310 310 309 309 308 308 307 306 304 304 304 304 305 305 305 303 303 303 303 303 304 304
276 278 278 280 282 283 285 287 288 290 292 296 299 302 304 305 306 307 308 308 308 309 309 308 308 309 308 306 306 305 304 304 304 305 306 306 305 304 304 304 305 305 305
274 275 276 278 280 281 283 285 288 290 292 294 297 300 301 302 302 303 304 305 305 308 309 308 308 308 309 308 306 305 304 304 305 306 307 306 305 305 305 305 306 306 306
273 273 275 277 279 279 280 284 286 288 290 292 294 296 298 299 300 300 302 303 304 305 306 306 307 308 309 308 306 305 303 303 305 307 307 308 308 307 307 307 307 308 308
272 273 274 276 277 279 282 284 286 287 288 289 290 291 294 296 296 297 298 300 302 303 305 305 306 307 308 308 307 305 304 304 306 307 307 307 308 309 309 309 310 311 310
Height
5937 5934 5932 5929 5927 5924 5921 5918 5916 5913 5911 5909 5907 5906 5905 5904 5903 5902 5902 5902 5902 5902 5902 5902 5902 5902 5903 5903 5903 5903 5904 5904 5904 5904 5904 5903 5903 5902 5902 5902 5901 5900 5900
5938 5935 5933 5930 5927 5925 5922 5918 5916 5914 5911 5909 5908 5906 5905 5903 5903 5902 5901 5901 5901 5901 5901 5901 5901 5901 5901 5902 5902 5902 5902 5902 5902 5903 5902 5902 5903 5902 5901 5901 5900 5900 5899
5938 5936 5934 5931 5928 5925 5923 5919 5917 5914 5912 5909 5908 5906 5905 5903 5902 5901 5900 5900 5899 5899 5900 5899 5900 5900 5900 5900 5901 5901 5901 5901 5901 5901 5901 5901 5901 5900 5900 5899 5899 5898 5897
5939 5936 5934 5931 5928 5926 5923 5920 5917 5915 5912 5910 5908 5906 5905 5903 5902 5901 5899 5898 5898 5898 5898 5898 5898 5899 5899 5899 5899 5899 5899 5899 5900 5900 5900 5900 5899 5899 5898 5898 5897 5896 5895
5938 5936 5934 5931 5928 5926 5923 5920 5917 5915 5913 5910 5908 5906 5905 5903 5902 5900 5899 5898 5897 5897 5897 5897 5897 5897 5897 5897 5897 5897 5897 5897 5898 5898 5898 5898 5897 5897 5897 5896 5895 5894 5893
5938 5935 5933 5931 5928 5926 5923 5920 5918 5915 5913 5910 5908 5906 5904 5903 5902 5900 5898 5897 5896 5896 5896 5895 5896 5896 5896 5895 5895 5895 5895 5895 5895 5895 5895 5895 5895 5894 5893 5893 5892 5891 5890
5936 5934 5932 5930 5928 5925 5922 5920 5918 5915 5913 5911 5908 5906 5904 5903 5901 5900 5898 5897 5896 5895 5895 5894 5894 5894 5894 5894 5894 5893 5893 5893 5893 5893 5892 5892 5891 5891 5890 5889 5888 5887 5886
5935 5933 5932 5929 5927 5925 5922 5920 5917 5915 5913 5910 5908 5906 5904 5902 5901 5899 5898 5896 5895 5894 5893 5893 5893 5892 5892 5891 5891 5891 5890 5890 5890 5889 5889 5889 5888 5887 5886 5885 5884 5883 5882
5933 5932 5930 5928 5926 5923 5922 5920 5917 5915 5912 5910 5908 5905 5904 5902 5900 5899 5897 5895 5894 5893 5892 5891 5891 5890 5889 5889 5888 5888 5887 5887 5886 5886 5885 5885 5884 5883 5882 5881 5880 5879 5878
5931 5929 5928 5927 5925 5923 5921 5919 5917 5914 5912 5909 5907 5905 5903 5901 5899 5897 5896 5894 5893 5891 5890 5889 5889 5888 5887 5886 5885 5885 5884 5884 5883 5882 5882 5881 5880 5878 5877 5876 5875 5874 5873
5930 5929 5927 5925 5924 5922 5920 5918 5916 5913 5911 5908 5906 5904 5902 5900 5898 5896 5895 5893 5891 5890 5889 5888 5887 5886 5885 5883 5883 5882 5881 5880 5880 5878 5877 5876 5875 5874 5872 5871 5870 5869 5867
5928 5927 5926 5924 5923 5921 5919 5917 5915 5913 5910 5908 5905 5903 5900 5898 5897 5895 5893 5891 5889 5888 5886 5885 5884 5883 5882 5881 5880 5878 5877 5877 5875 5874 5873 5871 5870 5869 5868 5866 5864 5863 5861
5927 5926 5924 5922 5921 5919 5918 5916 5914 5911 5909 5906 5904 5902 5899 5897 5895 5893 5891 5889 5888 5886 5885 5883 5882 5880 5879 5877 5876 5875 5874 5872 5871 5870 5868 5866 5865 5864 5862 5861 5859 5857 5855
5925 5924 5922 5921 5919 5918 5916 5914 5912 5910 5908 5905 5903 5900 5898 5895 5893 5891 5889 5887 5885 5884 5882 5880 5879 5877 5876 5874 5873 5871 5870 5868 5867 5865 5863 5861 5860 5858 5857 5855 5853 5851 5849
5922 5921 5920 5918 5917 5915 5914 5912 5910 5908 5906 5903 5901 5899 5896 5893 5891 5889 5887 5885 5883 5881 5879 5877 5875 5874 5872 5870 5869 5867 5865 5864 5862 5860 5858 5856 5854 5852 5850 5848 5846 5844 5841
5918 5918 5917 5915 5914 5912 5911 5909 5907 5905 5903 5901 5898 5896 5893 5891 5888 5886 5884 5882 5880 5878 5876 5874 5872 5870 5868 5866 5864 5862 5861 5859 5857 5855 5853 5851 5849 5847 5844 5842 5839 5837 5834
5915 5914 5913 5912 5911 5909 5908 5905 5903 5902 5900 5897 5895 5893 5890 5888 5886 5883 5881 5879 5876 5874 5872 5870 5868 5866 5863 5861 5859 5858 5856 5854 5852 5850 5848 5846 5843 5840 5838 5835 5832 5829 5827
5910 5910 5909 5908 5907 5906 5904 5902 5901 5899 5896 5894 5892 5890 5887 5885 5883 5880 5878 5875 5873 5871 5868 5866 5864 5861 5859 5857 5855 5853 5851 5849 5847 5844 5842 5839 5837 5834 5831 5828 5825 5822 5819
5906 5905 5904 5904 5903 5901 5900 5899 5897 5895 5893 5891 5889 5886 5884 5882 5880 5877 5874 5872 5869 5867 5864 5862 5859 5857 5855 5853 5851 5848 5846 5844 5841 5839 5836 5833 5830 5827 5824 5821 5818 5815 5812
5900 5900 5899 5899 5898 5897 5895 5894 5893 5891 5889 5887 5885 5883 5881 5878 5876 5873 5871 5868 5865 5862 5860 5857 5855 5852 5850 5848 5845 5843 5840 5838 5835 5832 5829 5826 5823 5820 5817 5814 5811 5808 5804
5895 5894 5894 5893 5892 5892 5890 5889 5888 5886 5884 5882 5880 5878 5876 5874 5871 5869 5866 5864 5861 5858 5856 5853 5850 5848 5845 5843 5840 5837 5835 5832 5829 5826 5823 5819 5816 5813 5810 5807 5804 5800 5797
5889 5888 5888 5887 5886 5885 5884 5883 5882 5881 5879 5877 5875 5873 5871 5869 5866 5864 5861 5859 5856 5853 5850 5848 5845 5843 5840 5837 5834 5831 5828 5825 5822 5819 5816 5813 5810 5806 5803 5800 5797 5793 5789
5882 5882 5882 5881 5881 5880 5878 5877 5876 5875 5873 5872 5869 5867 5865 5863 5861 5858 5856 5853 5850 5847 5845 5842 5839 5837 5834 5831 5828 5825 5822 5819 5816 5813 5809 5806 5803 5799 5796 5793 5789 5785 5781
5875 5875 5875 5874 5874 5873 5872 5871 5869 5868 5867 5865 5863 5861 5859 5857 5855 5852 5849 5847 5844 5842 5839 5836 5833 5830 5828 5824 5821 5818 5815 5812 5809 5806 5802 5799 5796 5792 5789 5785 5781 5777 5773
5868 5868 5868 5868 5867 5866 5865 5864 5863 5862 5860 5859 5857 5855 5853 5851 5848 5846 5843 5841 5838 5836 5833 5830 5827 5824 5821 5818 5814 5811 5808 5805 5802 5798 5795 5792 5789 5785 5781 5777 5773 5769 5765
5860 5860 5860 5860 5859 5859 5858 5856 5856 5855 5853 5852 5850 5848 5846 5844 5842 5839 5837 5834 5832 5829 5827 5824 5821 5818 5815 5811 5808 5805 5801 5798 5795 5792 5788 5785 5781 5777 5774 5769 5765 5761 5757